Regional Weather Roundup
Issued by NWS Green Bay, WI

Home | Current Version | Previous Version | Text Only | Print | Product List | Glossary On
Versions: 1 2 3 4 5 6 7 8 9 10 11 12 13 14 15 16 17 18 19 20 21 22 23 24 25 26 27 28 29 30 31 32 33 34 35 36 37 38 39 40 41 42 43 44 45 46 47 48 49 50
000
ASUS43 KGRB 021111
RWRGRB

NORTH-CENTRAL AND NORTHEAST WISCONSIN REGIONAL WEATHER ROUNDUP
NATIONAL WEATHER SERVICE GREEN BAY WI
600 AM CDT SUN AUG 02 2015

WIZ005-009-010>012-018-019-021200-
NORTH CENTRAL WISCONSIN

CITY           SKY/WX    TMP DP  RH WIND       PRES   REMARKS
IRONWOOD       MOCLDY    66  61  82 N7G20     29.67R
MANITOWISH WTR MOCLDY    63  63 100 CALM      29.69F
ARBOR VITAE    MOCLDY    63  61  94 CALM      29.69F
EAGLE RIVER    MOCLDY    62  61  98 CALM      29.69F
LAND O LAKES   MOCLDY    56  56  99 CALM      29.69F
RHINELANDER    PTCLDY    65  63  93 SW6       29.70F
PHILLIPS       CLOUDY    65  64  97 SW3       29.69S
ANTIGO         PTCLDY    63  62  98 SW6       29.71F
TOMAHAWK       CLEAR     60  59  96 CALM      29.71S FOG
MERRILL        NOT AVBL
$$

WIZ013-073-021200-
NORTHEAST WISCONSIN

CITY           SKY/WX    TMP DP  RH WIND       PRES   REMARKS
IRON MOUNTAIN  MOCLDY    58  55  90 CALM      29.65F
MARINETTE      MOCLDY    63  55  77 SW5       29.68S
OCONTO         MOCLDY    65  65 100 SW5       29.69F
$$

WIZ017-030-035>037-045-021200-
CENTRAL WISCONSIN

CITY           SKY/WX    TMP DP  RH WIND       PRES   REMARKS
MEDFORD        CLEAR     65  64  96 S7        29.70R
WAUSAU         PTCLDY    65  64  97 E5        29.68F
MOSINEE        PTCLDY    66  66 100 S7        29.72F
MARSHFIELD     PTCLDY    65  62  90 SW7       29.70F FOG
WISC RAPIDS    PTCLDY    69  65  86 S6        29.72F
STEVENS POINT  PTCLDY    65  64  98 S5        29.71F
WAUPACA        CLOUDY    67  65  91 CALM      29.73F
SHAWANO        MOCLDY    66  63  88 S5        29.71F
CLINTONVILLE   RAIN      64  63  94 S5        29.72F
$$

WIZ038-039-048-051-021200-
FOX VALLEY

CITY           SKY/WX    TMP DP  RH WIND       PRES   REMARKS
NWS GREEN BAY  LGT RAIN  68  65  90 S5        29.74S
APPLETON       MOCLDY    70  64  83 SW7       29.74F
OSHKOSH        MOCLDY    68  64  87 S8        29.75F
FOND DU LAC    PTCLDY    69  67  93 S6        29.76F
$$

WIZ022-050-052-021200-
EAST CENTRAL WISCONSIN

CITY           SKY/WX    TMP DP  RH WIND       PRES   REMARKS
STURGEON BAY   MOCLDY    70  63  78 SW14G21   29.72S
MANITOWOC      MOCLDY    73  66  78 MISG      29.75F
SHEBOYGAN      MOCLDY    67  64  90 SW7       29.76F
$$

LMZ563-521-522-541>543-021200-
LAKESHORE

STATION/POSITION TIME  TEMP    WIND        PRES    VSBY  WAVE
                       AIR SEA DIR/SP/G                  HT/PER
                 (UTC) (F)     (DEG/KT/KT) (MB)    (MI)  (FT/S)
SHEBOYGAN LKSHOR 1100   69     200/  8/  8 1007.7F
KEWAUNEE LKSHORE 1000   69     230/  5/  7 1006.5F
ALGOMA MARINA    1012          200/ 10/ 11   N/A
NORTHPORT PIER   1100   65     170/  4/  7 1005.1F
N MID LAKE BUOY  1050   70 68  190/ 14/ 16 1004.7F         2/ 4
S GREEN BAY BUOY 1100   70 67  220/ 16/ 19 1007.8R
CHAMBERS ISLAND  1000   68     200/  3/  6 1005.8F
MENOMINEE LKSHOR 1000   69     260/  6/ 11 1006.0F
$$


USA.gov is the U.S. government's official web portal to all federal, state and local government web resources and services.